Погода в Новокленском

Россия / Тамбовская область     53°12′08″N   40°14′09″E
темп.,
°C
ветер,
м/с
пор.,
м/с
влажн.,
%
обл.,
%
осадки,
мм/ч
давл.,
гПа
погр.,
м
25 февраля, чт
чт2500:00−15ю5995100 0.4 1033359
03:00−14ююз51094100 0.6 1031369
06:00−12ююз61195100 0.6 1026369
09:00−9юз71295100 2.7 1023415
12:00−2юз91696100 2.7 1018582
15:00+2зюз816100100 4.4 1015452
18:00+2зсз513100100 0.1 1015344
21:00+2зсз49100100 0.1 1015212
26 февраля, пт
пт2600:00+2зсз48100100 0.0 1015196
03:00+1зсз51099100 0.1 1015250
06:00+2з512100100 0.5 1014302
09:00+2зюз410100100 0.9 1013231
12:00+2зюз514100100 0.1 1011406
15:00+2з71499100 0.1 1010439
18:00+2зюз615100100 0.1 1007436
21:00+2з61497100 0.1 1007481
27 февраля, сб
сб2700:00+1з61391100 0.0 1006532
03:00+1з6128999 0.1 1005489
06:000з6129296 0.0 1004365
09:000з6119898 0.1 1003533
12:00+1з61199100 0.1 1002587
15:00+1з51110099 0.1 1002559
18:000зсз61197100 0.2 1002549
21:00−6ссз71191100 0.9 1005697
28 февраля, вс
вс2800:00−10ссз71290100 0.1 1008635
03:00−11ссз71291100 0.2 1012615
06:00−13ссз61192100 0.1 1013562
09:00−13с61092100 0.1 1015503
12:00−11ссз6990100 0.0 1016525
15:00−10ссз5990100 0.1 1017546
18:00−11ссз41093100 0.0 1019413
21:00−11ссз399593 0.1 1021280
1 марта, пн
пн100:00−12ссз389681 0.0 1023210
03:00−13ссз379670 0.1 1024146
06:00−14ссз35962 0.0 1026123
09:00−12ссз369513 0.0 1027235
12:00−9сз359572 0.0 1028288
15:00−6зсз369386 0.1 1028425
18:00−8з349468 0.0 102745
21:00−8з359548 0.0 102793